This demonstration page uses our WeatherBlox Daily Observations layout. Learn more.

Left ArrowRight Arrow

44.31136, -96.79839

Hourly Observations for September 27, 2021

Temp ( °F °C ) Dew Point ( °F °C ) Humidity (%) Winds ( mph kmh ) Pressure ( in mb ) Visibility ( mi km ) Precip ( " mm )
12:56 am 00:56 Clear 58 14.4 52 11.1 81 81 NW 3 6 29.78 1008 10 16 0.00 0.00
1:56 am 01:56 Clear 55 12.8 51 10.6 87 87 Calm 29.79 1009 10 16 0.00 0.00
2:56 am 02:56 Clear 55 12.8 50 10 83 83 NW 6 9 29.79 1009 10 16 0.00 0.00
3:56 am 03:56 Clear 53 11.7 50 10 89 89 N 6 9 29.79 1009 10 16 0.00 0.00
4:56 am 04:56 Clear 52 11.1 49 9.4 89 89 Calm 29.80 1009 10 16 0.00 0.00
5:56 am 05:56 Clear 50 10 47 8.3 89 89 Calm 29.82 1010 10 16 0.00 0.00
6:56 am 06:56 Clear 49 9.4 47 8.3 93 93 Calm 29.86 1011 10 16 0.00 0.00
7:56 am 07:56 Sunny 50 10 48 8.9 93 93 NNW 3 6 29.88 1012 10 16 0.00 0.00
8:56 am 08:56 Sunny 55 12.8 52 11.1 90 90 Calm 29.89 1012 10 16 0.00 0.00
9:56 am 09:56 Sunny 64 17.8 54 12.2 70 70 NE 3 6 29.91 1013 10 16 0.00 0.00
10:56 am 10:56 Sunny 70 21.1 54 12.2 57 57 E 9 15 29.92 1013 10 16 0.00 0.00
11:56 am 11:56 Sunny 74 23.3 55 12.8 52 52 E 8 13 29.91 1013 10 16 0.00 0.00
12:56 pm 12:56 Sunny 77 25 53 11.7 43 43 E 7 11 29.91 1013 10 16 0.00 0.00
1:56 pm 13:56 Sunny 80 26.7 52 11.1 38 38 E 7 11 29.90 1013 10 16 0.00 0.00
2:56 pm 14:56 Sunny 81 27.2 50 10 34 34 ESE 7 11 29.89 1012 10 16 0.00 0.00
3:56 pm 15:56 Sunny 82 27.8 52 11.1 35 35 SE 8 13 29.88 1012 10 16 0.00 0.00
4:56 pm 16:56 Sunny 82 27.8 54 12.2 38 38 SE 7 11 29.88 1012 10 16 0.00 0.00
5:56 pm 17:56 Sunny 80 26.7 53 11.7 39 39 SE 9 15 29.89 1012 10 16 0.00 0.00
6:56 pm 18:56 Sunny 78 25.6 52 11.1 40 40 SE 7 11 29.90 1012 10 16 0.00 0.00
7:56 pm 19:56 Clear 71 21.7 52 11.1 51 51 SE 9 15 29.91 1013 10 16 0.00 0.00
8:56 pm 20:56 Clear 67 19.4 52 11.1 59 59 ESE 9 15 29.91 1013 10 16 0.00 0.00
9:56 pm 21:56 Clear 65 18.3 52 11.1 63 63 SE 13 20 29.92 1013 10 16 0.00 0.00
10:56 pm 22:56 Clear 63 17.2 51 10.6 65 65 SE 12 19 29.91 1013 10 16 0.00 0.00
11:56 pm 23:56 Clear 60 15.6 51 10.6 72 72 SE 12 19 29.91 1013 10 16 0.00 0.00

Powered by AerisWeather